Find Starlink 4776

NORAD ID: 53837 Int'l Des: 2022-114 Owner: SPXS Country: US Constellation: starlink operational
LEOCIRCULAR

实时位置

正在加载3D地球...

关于 Starlink 4776

正在加载描述...

即将过境

Passes for default location (London). Set your location on the main map for personalized predictions.

高度历史

Loading altitude history...

两行轨道根数

1 53837U 22114V 26127.03489742 .00001152 00000-0 90480-4 0 9995
2 53837 53.2189 41.9071 0001577 96.5671 263.5501 15.08829185201644
Epoch: May 7, 2026 • Age: 23 hours

当前状态

高度 544.9 km
速度 7.60 km/s
星下点 51.52°N, 110.37°W
发射日期 Sep 19, 2022
运行时间 3.6 years
类型 internet

技术详情

分类 Payload
质量 305.00 kg
干质量 290.00 kg
总质量 305.00 kg
长度 0.20 m
直径 2.80 m
跨度 9.00 m
形状 Box + pan
制造商 SPXS
平台类型 Starlink
阶段状态 In Orbit
所有者/国家 SPXS/US

Most Searched